User: anonymous   Login
Location: Camp Creek
(33.9000°N, 111.8167°W)
Time: 04:09:58
(UTC-07:00)
Language:

Cosmos 2322 Rocket - Orbit

View from above orbital plane
View from above orbital plane
View from above satellite
View from above satellite

Ground track
Ground track

The orbit data is extracted from the following two-line orbital elements,

1 23705U 95058B   16211.47816678  .00000207  00000-0  13094-3 0  9991
2 23705  71.0237 346.0857 0010606  65.9047 294.3184 14.15088508 71533
Epoch (UTC): 29 July 2016 11:28:33
Eccentricity: 0.0010606
inclination: 71.0237°
perigee height: 834 km
apogee height: 849 km
right ascension of ascending node: 346.0857°
argument of perigee: 65.9047°
revolutions per day: 14.15088508
mean anomaly at epoch: 294.3184°
orbit number at epoch: 7153

The dashed part of the orbit path shows where the satellite is in the earth's shadow,  

DLR